#timestamp,LO_Frequency,Hit 
1597726815.2,286046999.0,N
1597726835.9,286046999.0,N
1597726855.7,286046999.4,N
1597726875.6,286046999.3,N
1597726895.4,286046999.3,N
1597726915.2,286046998.9,N
1597726935.1,286046998.3,N
1597726936.0,286046998.3,N
1597726955.8,286046998.7,N
1597726975.6,286046998.7,N
1597726995.5,286046998.7,N
1597727015.3,286046998.2,N
1597727035.1,286047001.2,N
1597727055.9,286046999.6,N
1597727075.7,286046999.6,N
1597727095.5,286046999.4,N
1597727115.4,286046998.9,N
1597727135.2,286046998.2,N
1597727155.0,286047000.0,N
1597727155.9,286047000.0,N
1597727175.8,286046998.7,N
1597727195.6,286047001.2,N
1597727215.4,286046999.3,N
1597727235.3,286046998.4,N
1597727255.1,286046998.9,N
1597727275.8,286046999.4,N
1597727295.7,286046999.2,N
1597727315.5,286046996.5,P
1597727335.4,286046998.9,N
1597727355.2,286047001.2,N
1597727375.0,286047000.7,N
1597727375.9,286047000.7,N
1597727395.8,286046998.6,N
1597727415.6,286046998.1,N
1597727435.4,286046998.4,N
1597727455.3,286046998.2,N
1597727475.1,286046998.8,N
1597727476.0,286046998.8,N
1597727495.8,286046999.0,N
1597727515.7,286046998.2,N
1597727535.5,286047000.0,N
1597727555.3,286047002.6,N
1597727575.2,286046999.9,N
1597727595.9,286047002.0,N
1597727615.7,286047002.3,N
1597727635.6,286047002.8,N
1597727655.4,286047001.9,N
1597727675.2,286047001.6,N
1597727695.0,286047003.9,N
1597727696.0,286047003.9,N
1597727715.8,286047001.8,N
1597727735.6,286047002.5,N
1597727755.5,286047004.1,N
1597727775.3,286047004.2,N
1597727795.1,286047004.2,N
1597727815.9,286047004.1,N
1597727835.7,286047003.0,N
1597727855.5,286047005.4,N
1597727875.4,286047005.5,N
1597727895.2,286047004.9,N
1597727915.0,286047005.7,N
1597727915.9,286047005.7,N
1597727935.8,286047004.6,N
1597727955.6,286047004.6,N
1597727975.4,286047007.5,P
1597727995.3,286047004.1,N
1597728015.1,286047003.0,N
1597728016.0,286047003.0,N
1597728035.8,286047002.9,N
1597728055.7,286047005.1,N
1597728075.5,286047005.8,P
1597728095.3,286047002.3,N
1597728115.2,286047002.4,N
1597728135.9,286047002.4,N
1597728155.7,286047002.8,N
1597728175.6,286047001.8,N
1597728195.4,286047002.3,N
1597728215.2,286047001.9,N
1597728235.1,286047003.9,P
1597728236.0,286047003.9,P
1597728255.8,286046998.2,P
1597728275.6,286047001.0,N
1597728295.5,286047000.0,N
1597728315.3,286046998.5,N
1597728335.1,286047000.6,N
1597728355.9,286047000.8,N
1597728375.7,286047002.8,N
1597728395.5,286047000.5,N
1597728415.4,286047000.4,N
1597728435.2,286046999.9,N
1597728455.0,286047000.4,N
1597728455.9,286047000.4,N
1597728475.8,286047000.0,N
1597728495.6,286046999.7,N
1597728515.4,286047001.0,N
1597728535.3,286047000.4,N
1597728555.1,286047000.0,N
1597728575.8,286046999.8,N
1597728595.7,286046998.1,N
1597728615.5,286047000.6,N
1597728635.3,286047000.5,N
1597728655.2,286047000.9,N
1597728675.0,286047000.4,N
1597728675.9,286047000.4,N
1597728695.7,286047000.1,N
1597728715.6,286047000.1,N
1597728735.4,286047000.2,N
1597728755.2,286046999.9,N
1597728775.1,286047000.8,N
1597728776.0,286047000.8,N
1597728795.8,286047000.0,N
1597728815.7,286047000.5,N
1597728835.5,286047000.6,N
1597728855.3,286047000.7,N
1597728875.2,286047000.8,N
1597728895.9,286046998.6,N
1597728915.7,286047000.6,N
1597728935.6,286046998.1,P
1597728955.4,286047000.3,N
1597728975.2,286047000.8,N
1597728995.1,286046998.3,N
1597728996.0,286046998.3,N
1597729015.8,286047000.6,N
1597729035.6,286047000.4,N
1597729055.5,286046998.5,N
1597729075.3,286047000.5,N
1597729095.1,286047000.4,N
1597729115.9,286046998.1,N
1597729135.7,286047000.5,N
1597729155.5,286046998.2,N
1597729175.4,286047000.6,N
1597729195.2,286046999.8,N
1597729215.0,286047000.5,N
1597729215.9,286047000.5,N
1597729235.8,286047000.5,N
1597729255.6,286047001.0,N
1597729275.4,286046998.3,N
1597729295.3,286047000.3,N
1597729315.1,286047000.5,N
1597729316.0,286047000.5,N
1597729335.8,286047000.1,N
1597729355.7,286046998.2,N
1597729375.5,286047000.4,N
1597729395.3,286046998.5,N
1597729415.2,286046998.2,N
1597729435.9,286047000.5,N
1597729455.7,286046998.2,N
1597729475.6,286046999.9,N
1597729495.4,286047000.6,N
1597729515.2,286047000.7,N
1597729535.1,286047001.2,N
1597729536.0,286047001.2,N
1597729555.8,286046999.8,N
1597729575.6,286046999.8,N
1597729595.5,286047000.1,N
1597729615.3,286047000.5,N
1597729635.1,286047000.8,N
1597729655.9,286047000.1,N
1597729675.7,286047000.5,N
1597729695.5,286047000.5,N
1597729715.4,286047000.3,N
1597729735.2,286046999.9,N
1597729755.0,286047000.2,N
1597729755.9,286047000.2,N
1597729775.8,286046999.8,N
1597729795.6,286047002.8,P
1597729815.4,286046998.6,N
1597729835.3,286047000.1,N
1597729855.1,286047000.8,N
1597729875.8,286047001.1,N
1597729895.7,286047001.2,N
1597729915.5,286047001.2,N
1597729935.3,286047000.8,N
1597729955.2,286047000.1,N
1597729975.0,286047000.7,N
1597729975.9,286047000.7,N
1597729995.7,286047000.5,N
1597730015.6,286047000.9,N
1597730035.4,286047000.5,N
1597730055.2,286046999.9,N
1597730075.1,286047002.4,N
1597730076.0,286047002.4,N
1597730095.8,286047002.7,N
1597730115.6,286047000.9,N
1597730135.5,286047000.3,N
1597730155.3,286047002.7,N
1597730175.1,286047000.4,N
1597730195.9,286046999.8,N
1597730215.7,286047000.8,N
1597730235.5,286047000.1,N
1597730255.4,286047002.1,N
1597730275.2,286047002.3,N
1597730295.0,286046999.8,N
1597730295.9,286046999.8,N
1597730315.8,286047000.8,N
1597730335.6,286047000.2,N
1597730355.4,286047000.6,N
1597730375.3,286046999.7,N
1597730395.1,286047000.4,N
